Flag for Germany Weather past 2 weeks in Tönisvorst, North Rhine-Westphalia, Germany

Now
66 °F

Partly cloudy.


Feels Like: 66 °F
Forecast: 51 / 61 °F
Wind: 18 mph from West

Location: Monchengladbach Airport

Current Time: Aug 22, 2014 at 4:05:44 PM

Latest Report: Aug 22, 2014 at 3:20 PM


Visibility: N/A

Pressure: 29.86 "Hg

Humidity: 52%

Dew point: 48 °F

Location of TönisvorstLocation

Historic Weather in Tönisvorst — Graph

°F

Tönisvorst temperature yesterday

Maximum temperature yesterday: 66 °F (at 4:20 PM)
Minimum temperature yesterday: 48 °F (at 7:50 AM)
Average temperature yesterday: 61 °F

Past Weeks' High & Low Weather Summary

 TemperatureHumidityPressure
High77 °F (Aug 8, 12:50 PM)100% (Aug 8, 4:02 PM)30.09 "Hg (Aug 8, 4:02 PM)
Low48 °F (Aug 21, 7:50 AM)46% (Aug 11, 2:50 PM)29.56 "Hg (Aug 10, 6:20 PM)
Average64 °F72%29.86 "Hg
* Reported Aug 7 2:20 PM — Aug 22 2:50 PM, Tönisvorst, Weather by CustomWeather, © 2014

Note: Actual official high and low records may vary slightly from our data, if they occured in-between our weather recording intervals... More about our weather records

Advertising

Tönisvorst weather history for previous 24 hours

 ConditionsComfort  
Time TempWeatherWind HumidityBarometerVisibility
2:50 PM
Aug 22
64 °FPassing clouds.10 mph56%29.86 "HgN/A
2:20 PM64 °FPassing clouds.10 mph56%29.86 "HgN/A
1:50 PM64 °FPassing clouds.15 mph52%29.86 "HgN/A
1:20 PM64 °FPassing clouds.21 mph60%29.86 "HgN/A
12:50 PM66 °FScattered clouds.12 mph56%29.86 "HgN/A
12:20 PM66 °FScattered clouds.12 mph56%29.89 "HgN/A
11:50 AM64 °FPassing clouds.10 mph56%29.89 "HgN/A
11:20 AM64 °FPassing clouds.10 mph56%29.89 "HgN/A
10:50 AM61 °FPassing clouds.7 mph63%29.89 "HgN/A
10:20 AM61 °FPassing clouds.6 mph68%29.89 "HgN/A
9:50 AM61 °FSunny.5 mph68%29.89 "Hg10 mi
9:20 AM57 °FSunny.2 mph77%29.89 "Hg10 mi
8:50 AM57 °FSunny.3 mph77%29.89 "Hg10 mi
8:20 AM55 °FSunny.3 mph82%29.89 "Hg10 mi
7:50 AM54 °FSunny.3 mph82%29.89 "Hg10 mi
8:20 PM
Aug 21
61 °FPassing clouds.5 mph68%29.95 "HgN/A
7:50 PM61 °FRain showers. Passing clouds.3 mph68%29.95 "HgN/A
7:20 PM63 °FPassing clouds.3 mph64%29.95 "HgN/A
6:50 PM63 °FPassing clouds.3 mph59%29.98 "HgN/A
6:20 PM64 °FPassing clouds.8 mph56%29.98 "HgN/A
5:50 PM63 °FPassing clouds.6 mph56%29.98 "HgN/A
5:20 PM63 °FPassing clouds.7 mph59%29.98 "HgN/A
4:50 PM64 °FClear.9 mph49%29.98 "Hg10 mi
4:20 PM66 °FPassing clouds.6 mph49%29.98 "HgN/A
Weather by CustomWeather, © 2014

See weather overviewHow to use our weather pages